N6498W KISP-KPVD

Flight info

Callsign N6498W
Flight time N/A
Altitude 17000
Route ORCHA T320 GON
Aircraft SF50/L-BDGRSWY/LB2U2

Departure

Time 2026-04-21 22:13
Airport Long Island MacArthur Airport (KISP)

Arrival

Time N/A
Airport Rhode Island T. F. Green International Airport (KPVD)
Time Latitude Longitude Altitude Speed Heading
2026-04-21 21:43 40.79819 -73.10811 95 ft 0 kts
2026-04-21 21:54 40.79816 -73.10811 95 ft 2 kts
2026-04-21 21:55 40.79804 -73.10823 95 ft 3 kts 79°
2026-04-21 21:55 40.79803 -73.10835 95 ft 0 kts 88°
2026-04-21 21:57 40.79803 -73.10782 94 ft 3 kts 89°
2026-04-21 21:57 40.79803 -73.10776 94 ft 0 kts 89°
2026-04-21 22:06 40.79812 -73.10731 94 ft 9 kts 45°
2026-04-21 22:06 40.79881 -73.10720 95 ft 12 kts 360°
2026-04-21 22:06 40.79986 -73.10720 97 ft 12 kts
2026-04-21 22:07 40.79994 -73.10642 97 ft 12 kts 129°
2026-04-21 22:07 40.79923 -73.10547 95 ft 17 kts 137°
2026-04-21 22:07 40.79837 -73.10437 93 ft 16 kts 133°
2026-04-21 22:07 40.79767 -73.10347 95 ft 11 kts 130°
2026-04-21 22:08 40.79757 -73.10275 92 ft 9 kts 44°
2026-04-21 22:08 40.79848 -73.10156 91 ft 20 kts 44°
2026-04-21 22:08 40.79936 -73.10039 88 ft 16 kts 45°
2026-04-21 22:08 40.80022 -73.09926 87 ft 18 kts 45°
2026-04-21 22:09 40.80109 -73.09813 86 ft 19 kts 43°
2026-04-21 22:09 40.80191 -73.09704 87 ft 15 kts 45°
2026-04-21 22:09 40.80253 -73.09622 84 ft 10 kts 47°
2026-04-21 22:09 40.80275 -73.09571 83 ft 8 kts 84°
2026-04-21 22:10 40.80268 -73.09538 83 ft 0 kts 131°
2026-04-21 22:12 40.80246 -73.09508 85 ft 14 kts 135°
2026-04-21 22:12 40.80135 -73.09576 89 ft 42 kts 225°
2026-04-21 22:12 40.79767 -73.10062 133 ft 100 kts 224°
2026-04-21 22:12 40.79220 -73.10810 366 ft 127 kts 224°
2026-04-21 22:13 40.78557 -73.11598 866 ft 124 kts 197°
2026-04-21 22:13 40.77777 -73.11199 1302 ft 137 kts 136°
2026-04-21 22:13 40.77099 -73.10250 1671 ft 147 kts 143°
2026-04-21 22:13 40.76266 -73.09442 2059 ft 149 kts 147°
2026-04-21 22:14 40.75408 -73.08653 2458 ft 151 kts 147°
2026-04-21 22:14 40.74513 -73.07829 2830 ft 168 kts 147°
2026-04-21 22:14 40.73488 -73.06900 3242 ft 188 kts 147°
2026-04-21 22:14 40.72372 -73.05857 3642 ft 205 kts 139°
2026-04-21 22:15 40.71802 -73.04073 4017 ft 229 kts 89°
2026-04-21 22:15 40.72392 -73.02083 4425 ft 244 kts 54°
2026-04-21 22:15 40.73343 -73.00154 4841 ft 253 kts 58°
2026-04-21 22:15 40.74030 -72.98031 5237 ft 251 kts 69°
2026-04-21 22:16 40.74523 -72.95865 5616 ft 248 kts 71°
2026-04-21 22:16 40.75007 -72.93686 5992 ft 247 kts 68°
2026-04-21 22:16 40.75580 -72.91522 6240 ft 249 kts 65°
2026-04-21 22:16 40.76177 -72.89394 6637 ft 246 kts 64°
2026-04-21 22:17 40.76765 -72.87279 7011 ft 245 kts 64°
2026-04-21 22:17 40.77344 -72.85175 7383 ft 243 kts 64°
2026-04-21 22:17 40.77912 -72.83081 7758 ft 241 kts 64°
2026-04-21 22:17 40.78476 -72.80983 8004 ft 246 kts 63°
2026-04-21 22:18 40.79061 -72.78826 8008 ft 258 kts 64°
2026-04-21 22:18 40.79677 -72.76559 8015 ft 266 kts 64°
2026-04-21 22:18 40.80291 -72.74226 8027 ft 271 kts 65°
2026-04-21 22:18 40.80915 -72.71868 8027 ft 273 kts 64°
2026-04-21 22:19 40.81552 -72.69489 8027 ft 275 kts 64°
2026-04-21 22:19 40.82190 -72.67100 8028 ft 277 kts 64°
2026-04-21 22:19 40.82831 -72.64696 8028 ft 278 kts 64°
2026-04-21 22:19 40.83455 -72.62326 8336 ft 267 kts 64°
2026-04-21 22:20 40.84048 -72.60033 8726 ft 264 kts 64°
2026-04-21 22:20 40.84642 -72.57736 9121 ft 265 kts 64°
2026-04-21 22:20 40.85235 -72.55423 9521 ft 265 kts 64°
2026-04-21 22:20 40.85820 -72.53115 9939 ft 265 kts 63°
2026-04-21 22:21 40.86409 -72.50815 10335 ft 264 kts 63°
2026-04-21 22:21 40.87013 -72.48523 10702 ft 263 kts 62°
2026-04-21 22:21 40.87624 -72.46239 11008 ft 266 kts 62°
2026-04-21 22:21 40.88255 -72.43909 11018 ft 279 kts 62°
2026-04-21 22:22 40.88915 -72.41457 11008 ft 287 kts 62°
2026-04-21 22:22 40.89583 -72.38941 11011 ft 293 kts 63°
2026-04-21 22:22 40.90255 -72.36386 11011 ft 296 kts 63°
2026-04-21 22:22 40.91091 -72.33938 11001 ft 288 kts 50°
2026-04-21 22:23 40.92294 -72.31862 11001 ft 282 kts 40°
2026-04-21 22:23 40.93729 -72.30140 10996 ft 275 kts 28°
2026-04-21 22:23 40.95355 -72.28870 10994 ft 269 kts 18°
2026-04-21 22:23 40.97056 -72.27847 10994 ft 268 kts 17°
2026-04-21 22:24 40.98760 -72.26827 10995 ft 269 kts 17°
2026-04-21 22:24 41.00463 -72.25773 10995 ft 270 kts 18°
2026-04-21 22:24 41.02162 -72.24702 11011 ft 271 kts 18°
2026-04-21 22:24 41.03867 -72.23629 11007 ft 272 kts 18°
2026-04-21 22:25 41.05576 -72.22557 11008 ft 272 kts 18°
2026-04-21 22:25 41.07265 -72.21499 11009 ft 272 kts 18°
2026-04-21 22:25 41.08979 -72.20427 11010 ft 272 kts 18°
2026-04-21 22:25 41.10690 -72.19355 11010 ft 272 kts 18°
2026-04-21 22:26 41.12401 -72.18281 11029 ft 272 kts 18°
2026-04-21 22:26 41.14108 -72.17208 11025 ft 272 kts 18°
2026-04-21 22:26 41.15821 -72.16132 10997 ft 272 kts 18°
2026-04-21 22:26 41.17533 -72.15058 10996 ft 272 kts 18°
2026-04-21 22:27 41.19247 -72.13982 10994 ft 272 kts 18°
2026-04-21 22:27 41.20959 -72.12904 11005 ft 272 kts 18°
2026-04-21 22:27 41.22674 -72.11823 10990 ft 272 kts 18°
2026-04-21 22:27 41.24387 -72.10742 10989 ft 272 kts 18°
2026-04-21 22:28 41.26115 -72.09656 10775 ft 278 kts 19°
2026-04-21 22:28 41.27282 -72.08927 10613 ft 282 kts 19°
2026-04-21 22:28 41.29666 -72.07439 10147 ft 290 kts 19°
2026-04-21 22:28 41.30908 -72.06662 9870 ft 293 kts 20°
2026-04-21 22:29 41.32761 -72.05492 9464 ft 296 kts 21°
2026-04-21 22:29 41.34538 -72.04060 9057 ft 302 kts 30°
2026-04-21 22:29 41.36237 -72.02383 8659 ft 305 kts 32°
2026-04-21 22:29 41.37950 -72.00717 8265 ft 306 kts 31°
2026-04-21 22:30 41.39710 -71.99152 7872 ft 297 kts 29°
2026-04-21 22:30 41.41413 -71.97705 7489 ft 285 kts 29°
2026-04-21 22:30 41.43062 -71.96285 7108 ft 279 kts 30°
2026-04-21 22:30 41.44670 -71.94860 6731 ft 277 kts 31°
2026-04-21 22:31 41.46263 -71.93429 6343 ft 275 kts 31°
2026-04-21 22:31 41.47830 -71.92023 5944 ft 275 kts 31°
2026-04-21 22:31 41.49329 -71.90464 5524 ft 272 kts 44°
2026-04-21 22:31 41.50414 -71.88460 5124 ft 263 kts 57°
2026-04-21 22:32 41.51277 -71.86375 5000 ft 249 kts 59°
2026-04-21 22:32 41.52105 -71.84415 4998 ft 237 kts 56°
2026-04-21 22:32 41.52959 -71.82575 4998 ft 230 kts 54°
2026-04-21 22:32 41.53819 -71.80824 4998 ft 220 kts 53°
2026-04-21 22:33 41.54646 -71.79144 4997 ft 212 kts 55°
2026-04-21 22:33 41.55445 -71.77516 4996 ft 206 kts 53°
2026-04-21 22:33 41.56215 -71.75928 4992 ft 201 kts 53°
2026-04-21 22:33 41.56961 -71.74376 4989 ft 196 kts 54°
2026-04-21 22:34 41.57696 -71.72866 4989 ft 191 kts 53°
2026-04-21 22:34 41.58414 -71.71389 4990 ft 189 kts 53°
2026-04-21 22:34 41.59125 -71.69924 4991 ft 188 kts 53°
2026-04-21 22:34 41.59835 -71.68466 4988 ft 187 kts 55°
2026-04-21 22:35 41.60537 -71.67010 4985 ft 186 kts 52°
2026-04-21 22:35 41.61238 -71.65559 4986 ft 186 kts 55°
2026-04-21 22:35 41.61932 -71.64132 4983 ft 186 kts 54°
2026-04-21 22:35 41.62630 -71.62684 4986 ft 185 kts 52°
2026-04-21 22:36 41.64028 -71.59803 4985 ft 184 kts 53°
2026-04-21 22:36 41.64724 -71.58360 4988 ft 185 kts 52°
2026-04-21 22:36 41.65495 -71.57019 4979 ft 179 kts 32°
2026-04-21 22:37 41.66650 -71.56641 4991 ft 172 kts 351°
2026-04-21 22:37 41.67850 -71.56787 4997 ft 179 kts 356°
2026-04-21 22:37 41.69143 -71.56642 5002 ft 194 kts
2026-04-21 22:37 41.70524 -71.56392 4852 ft 206 kts
2026-04-21 22:38 41.71951 -71.56075 4508 ft 210 kts
2026-04-21 22:38 41.73377 -71.55710 4171 ft 213 kts
2026-04-21 22:38 41.74832 -71.55360 3831 ft 213 kts 10°
2026-04-21 22:38 41.76214 -71.54620 3471 ft 218 kts 35°
2026-04-21 22:39 41.77234 -71.53129 3116 ft 216 kts 60°
2026-04-21 22:39 41.77735 -71.51306 2953 ft 198 kts 86°
2026-04-21 22:39 41.77571 -71.49734 2692 ft 154 kts 116°
2026-04-21 22:39 41.77215 -71.48450 2312 ft 142 kts 118°
2026-04-21 22:40 41.76825 -71.47241 1839 ft 139 kts 123°
2026-04-21 22:40 41.76255 -71.46304 1427 ft 121 kts 144°
2026-04-21 22:40 41.75663 -71.45704 1033 ft 100 kts 154°
2026-04-21 22:40 41.75126 -71.45217 726 ft 87 kts 154°
2026-04-21 22:41 41.74668 -71.44788 526 ft 77 kts 152°
2026-04-21 22:41 41.74220 -71.44322 357 ft 84 kts 147°
2026-04-21 22:41 41.73763 -71.43847 246 ft 79 kts 146°
2026-04-21 22:41 41.73339 -71.43437 159 ft 76 kts 130°
2026-04-21 22:42 41.72986 -71.43013 71 ft 55 kts 142°